TimeCDT,TemperatureF,Dew PointF,Humidity,Sea Level PressureIn,VisibilityMPH,Wind Direction,Wind SpeedMPH,Gust SpeedMPH,PrecipitationIn,Events,Conditions,WindDirDegrees,DateUTC
12:53 AM,53.1,52.0,96,30.22,10.0,Calm,Calm,-,N/A,,Clear,0,2013-05-14 05:53:00
1:53 AM,54.0,52.0,93,30.22,10.0,Calm,Calm,-,N/A,,Clear,0,2013-05-14 06:53:00
2:53 AM,52.0,51.1,97,30.21,10.0,Calm,Calm,-,N/A,,Clear,0,2013-05-14 07:53:00
3:53 AM,51.1,50.0,96,30.20,10.0,Calm,Calm,-,N/A,,Clear,0,2013-05-14 08:53:00
4:53 AM,52.0,50.0,93,30.21,10.0,Calm,Calm,-,N/A,,Clear,0,2013-05-14 09:53:00
5:53 AM,54.0,52.0,93,30.21,10.0,South,3.5,-,N/A,,Clear,180,2013-05-14 10:53:00
6:53 AM,57.9,54.0,87,30.24,10.0,South,3.5,-,N/A,,Clear,190,2013-05-14 11:53:00
7:53 AM,64.0,57.9,80,30.26,10.0,Variable,3.5,-,N/A,,Clear,0,2013-05-14 12:53:00
8:53 AM,69.1,55.9,63,30.27,10.0,WSW,4.6,-,N/A,,Mostly Cloudy,240,2013-05-14 13:53:00
9:53 AM,73.0,55.9,55,30.28,10.0,Variable,4.6,-,N/A,,Clear,0,2013-05-14 14:53:00
10:53 AM,75.9,55.0,48,30.28,10.0,Variable,6.9,-,N/A,,Clear,0,2013-05-14 15:53:00
11:53 AM,79.0,55.9,45,30.27,10.0,South,5.8,-,N/A,,Clear,190,2013-05-14 16:53:00
12:53 PM,81.0,55.9,42,30.25,10.0,Variable,6.9,-,N/A,,Clear,0,2013-05-14 17:53:00
1:53 PM,82.9,57.9,42,30.22,10.0,SW,8.1,-,N/A,,Clear,220,2013-05-14 18:53:00
2:53 PM,82.9,55.0,38,30.19,10.0,SSW,6.9,-,N/A,,Clear,210,2013-05-14 19:53:00
3:53 PM,82.9,59.0,44,30.17,10.0,South,9.2,-,N/A,,Clear,180,2013-05-14 20:53:00
4:53 PM,82.9,59.0,44,30.16,10.0,South,9.2,-,N/A,,Clear,180,2013-05-14 21:53:00
5:53 PM,81.0,57.0,44,30.15,10.0,South,9.2,-,N/A,,Clear,190,2013-05-14 22:53:00
6:53 PM,79.0,55.9,45,30.14,10.0,South,6.9,-,N/A,,Clear,190,2013-05-14 23:53:00
7:53 PM,73.0,57.9,59,30.14,10.0,South,4.6,-,N/A,,Clear,180,2013-05-15 00:53:00
8:53 PM,68.0,57.9,70,30.14,10.0,South,4.6,-,N/A,,Clear,180,2013-05-15 01:53:00
9:53 PM,66.0,57.0,73,30.16,10.0,South,3.5,-,N/A,,Clear,190,2013-05-15 02:53:00
10:53 PM,69.1,55.9,63,30.16,10.0,South,4.6,-,N/A,,Clear,190,2013-05-15 03:53:00
11:53 PM,68.0,57.0,68,30.16,10.0,South,5.8,-,N/A,,Clear,190,2013-05-15 04:53:00